Flag for Germany Weather past 2 weeks in Bayreuth, Bavaria, Germany

Now
45 °F

Partly sunny.


Feels Like: 38 °F
Forecast: 35 / 40 °F
Wind: 14 mph from West

Location: Grafenwoehr

Current Time: Mar 31, 2015 at 7:05:25 PM

Latest Report: Mar 31, 2015 at 6:03 PM


Visibility: N/A

Pressure: 29.55 "Hg

Humidity: 76%

Dew point: 37 °F

Location of BayreuthLocation

Historic Weather in Bayreuth — Graph

°F

Bayreuth temperature yesterday

Maximum temperature yesterday: 50 °F (at 4:58 PM)
Minimum temperature yesterday: 35 °F (at 11:58 PM)
Average temperature yesterday: 42 °F

Past Weeks' High & Low Weather Summary

 TemperatureHumidityPressure
High63 °F (Mar 25, 2:58 PM)100% (Mar 19, 3:58 AM)30.33 "Hg (Mar 19, 3:58 AM)
Low23 °F (Mar 21, 5:58 AM)27% (Mar 20, 2:58 PM)29.37 "Hg (Mar 30, 12:00 AM)
Average43 °F75%29.96 "Hg
* Reported Mar 16 5:58 PM — Mar 31 6:03 PM, Bayreuth, Weather by CustomWeather, © 2015

Note: Actual official high and low records may vary slightly from our data, if they occured in-between our weather recording intervals... More about our weather records

Advertising

Bayreuth weather history for previous 24 hours

 ConditionsComfort  
Time TempWeatherWind HumidityBarometerVisibility
6:03 PM
Tue, Mar 31
45 °FPartly sunny.14 mph76%29.55 "HgN/A
5:58 PM45 °FLight rain. Partly sunny.16 mph81%29.59 "HgN/A
4:58 PM44 °FPartly sunny.16 mph80%29.55 "HgN/A
3:58 PM45 °FCloudy.16 mph76%29.53 "HgN/A
3:00 PM46 °FLight rain. Cloudy.23 mph76%29.47 "HgN/A
2:00 PM48 °FBroken clouds.16 mph87%29.42 "HgN/A
1:04 PM48 °FRain. Fog.26 mph87%29.41 "Hg2 mi
12:58 PM48 °FRain. Fog.23 mph89%29.44 "Hg3 mi
11:58 AM52 °FLight rain. Broken clouds.20 mph77%29.42 "Hg5 mi
11:03 AM52 °FPartly sunny.25 mph77%29.37 "HgN/A
11:01 AM52 °FMostly cloudy.23 mph77%29.37 "HgN/A
9:58 AM52 °FLight rain. Mostly cloudy.23 mph77%29.38 "HgN/A
8:58 AM49 °FLight rain. Fog.12 mph89%29.39 "Hg6 mi
7:58 AM46 °FLight rain. Overcast.15 mph94%29.41 "HgN/A
7:04 AM41 °FDrizzle. Low clouds.9 mph100%29.42 "HgN/A
6:58 AM41 °FOvercast.9 mph93%29.46 "HgN/A
5:58 AM35 °FLight rain. Fog.7 mph95%29.55 "Hg5 mi
4:59 AM34 °FLight snow. Fog.3 mph93%29.57 "Hg5 mi
4:58 AM34 °FLight snow. Fog.3 mph93%29.62 "Hg5 mi
3:58 AM37 °FLight rain. Passing clouds.9 mph83%29.70 "HgN/A
2:58 AM37 °FPartly cloudy.6 mph70%29.78 "HgN/A
1:58 AM35 °FMostly cloudy.1 mph78%29.83 "HgN/A
12:58 AM34 °FOvercast.1 mph79%29.86 "HgN/A
11:58 PM
Mon, Mar 30
35 °FClear.5 mph72%29.87 "HgN/A
10:58 PM36 °FClear.7 mph76%29.88 "HgN/A
9:58 PM36 °FPassing clouds.2 mph87%29.88 "HgN/A
8:58 PM37 °FMostly cloudy.3 mph81%29.86 "HgN/A
7:58 PM36 °FCloudy.13 mph82%29.84 "HgN/A
Weather by CustomWeather, © 2015

See weather overviewHow to use our weather pages